Flag for Australia Weather past 2 weeks in Launceston, Tasmania, Australia

Now
48 °F

Clear.


Feels Like: 45 °F
Forecast: 38 / 62 °F
Wind: 7 mph from South

Location: Launceston Airport

Current Time: Apr 28, 2015 at 9:23:14 PM

Latest Report: Apr 28, 2015 at 9:00 PM


Visibility: N/A

Pressure: 30.36 "Hg

Humidity: 71%

Dew point: 39 °F

Location of LauncestonLocation

Historic Weather in Launceston — Graph

°F

Launceston temperature yesterday

Maximum temperature yesterday: 61 °F (at 3:00 PM)
Minimum temperature yesterday: 37 °F (at 8:00 AM)
Average temperature yesterday: 48 °F

Past Weeks' High & Low Weather Summary

 TemperatureHumidityPressure
High68 °F (Apr 15, 1:00 PM)100% (Apr 16, 5:30 AM)30.63 "Hg (Apr 16, 5:30 AM)
Low28 °F (Apr 20, 6:00 AM)26% (Apr 19, 3:30 PM)29.56 "Hg (Apr 24, 4:00 PM)
Average52 °F73%30.11 "Hg
* Reported Apr 13 8:00 PM — Apr 28 8:00 PM, Launceston, Weather by CustomWeather, © 2015

Note: Actual official high and low records may vary slightly from our data, if they occured in-between our weather recording intervals... More about our weather records

Advertising

Launceston weather history for previous 24 hours

 ConditionsComfort  
Time TempWeatherWind HumidityBarometerVisibility
8:00 PM
Tue, Apr 28
50 °FClear.6 mph62%30.36 "HgN/A
7:30 PM48 °FClear.7 mph66%30.33 "HgN/A
7:00 PM50 °FClear.9 mph67%30.33 "HgN/A
6:30 PM50 °FClear.8 mph67%30.33 "HgN/A
6:00 PM52 °FPassing clouds.6 mph58%30.30 "HgN/A
5:30 PM54 °FPassing clouds.3 mph54%30.30 "HgN/A
5:00 PM55 °FClear.3 mph51%30.30 "HgN/A
4:30 PM57 °FClear.5 mph48%30.27 "HgN/A
4:00 PM59 °FSunny.6 mph42%30.27 "HgN/A
3:30 PM59 °FSunny.6 mph42%30.27 "HgN/A
3:00 PM61 °FSunny.3 mph42%30.27 "HgN/A
2:30 PM59 °FSunny.6 mph45%30.27 "HgN/A
2:00 PM59 °FSunny.5 mph42%30.27 "HgN/A
1:30 PM59 °FSunny.7 mph42%30.27 "HgN/A
12:30 PM59 °FSunny.7 mph42%30.30 "HgN/A
12:00 PM57 °FSunny.6 mph48%30.30 "HgN/A
11:30 AM57 °FSunny.6 mph51%30.33 "HgN/A
11:00 AM57 °FSunny.8 mph51%30.33 "HgN/A
10:30 AM54 °FSunny.3 mph58%30.33 "HgN/A
10:00 AM50 °FSunny.2 mph67%30.33 "HgN/A
9:30 AM48 °FSunny.5 mph71%30.33 "HgN/A
9:00 AM43 °FSunny.6 mph87%30.33 "HgN/A
8:30 AM43 °FSunny.6 mph81%30.33 "HgN/A
8:00 AM39 °FSunny.6 mph87%30.30 "HgN/A
7:00 AM36 °FSunny.7 mph93%30.30 "HgN/A
6:30 AM36 °FSunny.6 mph87%30.27 "HgN/A
6:00 AM36 °FSunny.6 mph87%30.27 "HgN/A
5:30 AM37 °FClear.5 mph87%30.27 "HgN/A
5:00 AM37 °FClear.2 mph87%30.24 "HgN/A
4:30 AM37 °FClear.6 mph87%30.24 "HgN/A
4:00 AM36 °FClear.6 mph93%30.24 "HgN/A
3:30 AM37 °FClear.6 mph87%30.24 "HgN/A
3:00 AM37 °FClear.7 mph93%30.24 "HgN/A
2:30 AM37 °FClear.6 mph87%30.24 "HgN/A
2:00 AM39 °FClear.6 mph87%30.24 "HgN/A
1:30 AM39 °FClear.5 mph81%30.24 "HgN/A
1:00 AM41 °FClear.6 mph81%30.24 "HgN/A
12:30 AM41 °FClear.7 mph81%30.24 "HgN/A
12:00 AM43 °FClear.5 mph76%30.24 "HgN/A
11:30 PM
Mon, Apr 27
43 °FClear.3 mph76%30.24 "HgN/A
11:00 PM43 °FClear.6 mph76%30.24 "HgN/A
10:30 PM45 °FClear.6 mph76%30.21 "HgN/A
10:00 PM45 °FClear.6 mph71%30.21 "HgN/A
9:30 PM45 °FClear.5 mph71%30.21 "HgN/A
9:00 PM45 °FClear.6 mph71%30.21 "HgN/A
Weather by CustomWeather, © 2015

See weather overviewHow to use our weather pages